Flag for Japan Weather past 2 weeks in Suzuka, Japan

Now
85 °F

Warm.


Feels Like: 96 °F
Forecast: 76 / 82 °F
Wind: 3 mph from East

Location: Tsu

Current Time: Aug 1, 2014 at 5:21:38 PM

Latest Report: Aug 1, 2014 at 4:00 PM


Visibility: N/A

Pressure: 29.84 "Hg

Humidity: 79%

Dew point: 78 °F

Location of SuzukaLocation

Historic Weather in Suzuka — Graph

°F

Suzuka temperature yesterday

Maximum temperature yesterday: 90 °F (at 5:00 PM)
Minimum temperature yesterday: 78 °F (at 5:00 AM)
Average temperature yesterday: 83 °F

Past Weeks' High & Low Weather Summary

 TemperatureHumidityPressure
High96 °F (Jul 25, 12:00 PM)94% (Jul 19, 2:00 PM)30.03 "Hg (Jul 19, 2:00 PM)
Low72 °F (Jul 20, 12:00 AM)44% (Jul 28, 11:00 AM)29.69 "Hg (Jul 24, 2:00 AM)
Average83 °F73%29.86 "Hg
* Reported Jul 17 4:00 PM — Aug 1 4:00 PM, Suzuka, Weather by CustomWeather, © 2014

Note: Actual official high and low records may vary slightly from our data, if they occured in-between our weather recording intervals... More about our weather records

Advertising

Suzuka weather history for previous 24 hours

 ConditionsComfort  
Time TempWeatherWind HumidityBarometerVisibility
4:00 PM
Aug 1
85 °FWarm.3 mph79%29.84 "HgN/A
3:00 PM83 °FOvercast.3 mph83%29.85 "Hg12 mi
2:00 PM83 °FWarm.9 mph83%29.87 "HgN/A
1:00 PM83 °FWarm.9 mph80%29.88 "HgN/A
12:00 PM84 °FWarm.10 mph78%29.89 "HgN/A
11:00 AM84 °FWarm.8 mph77%29.90 "HgN/A
10:00 AM82 °FWarm.5 mph77%29.91 "HgN/A
9:00 AM82 °FOvercast.3 mph81%29.92 "Hg12 mi
8:00 AM81 °FWarm.3 mph85%29.93 "HgN/A
7:00 AM81 °FWarm.5 mph85%29.92 "HgN/A
6:00 AM80 °FWarm.2 mph87%29.90 "HgN/A
5:00 AM79 °FWarm.3 mph89%29.91 "HgN/A
4:00 AM79 °FWarm.5 mph87%29.90 "HgN/A
3:00 AM80 °FWarm.3 mph88%29.89 "HgN/A
2:00 AM80 °FWarm.6 mph90%29.89 "HgN/A
1:00 AM80 °FWarm.6 mph87%29.90 "HgN/A
12:00 AM80 °FWarm.6 mph86%29.90 "HgN/A
11:00 PM
Jul 31
80 °FWarm.6 mph84%29.90 "HgN/A
10:00 PM83 °FWarm.5 mph75%29.90 "HgN/A
9:00 PM83 °FPassing clouds.7 mph77%29.90 "Hg12 mi
8:00 PM84 °FWarm.8 mph74%29.90 "HgN/A
7:00 PM87 °FWarm.3 mph53%29.87 "HgN/A
6:00 PM88 °FWarm.5 mph57%29.87 "HgN/A
5:00 PM90 °FHot.9 mph57%29.86 "HgN/A
Weather by CustomWeather, © 2014

See weather overviewHow to use our weather pages